Location: Cabo di Oristano
(39.8500°N, 8.4333°E)
Time: 17:23:27
(UTC+00:00)

Cosmos 1420 Rocket - Pass Details

Date: 31 January 2023
Orbit: 754 x 779 km, 74.0° (Epoch: 31 March)

Event Time Altitude Azimuth Distance (km) Brightness Sun altitude
Exits shadow 04:34:20 43° 330° (NNW) 1,094 4.5 -23.5°
Drops below altitude 10° 04:38:23 10° 8° (N) 2,338 6.5 -22.7°
Sets 04:40:51 0° 14° (NNE) 3,267 7.4 -22.2°
